Tracking 25963 objects as of 13-Aug-2022
HD Live streaming from Space Station
objects crossing your sky now

STARLINK-2257

Track STARLINK-2257 now!
10-day predictions
STARLINK-2257 is classified as:


NORAD ID: 47787
Int'l Code: 2021-018A
Perigee: 553.4 km
Apogee: 555.2 km
Inclination: 53.1 °
Period: 95.6 minutes
Semi major axis: 6925 km
RCS: Unknown
Launch date: March 11, 2021
Source: United States (US)
Launch site: AIR FORCE EASTERN TEST RANGE (AFETR)
aabbcc
Your satellite tracking list
Your tracking list is empty




NASA's NSSDC Master Catalog

Two Line Element Set (TLE):
1 47787U 21018A   22224.52443180  .00007729  00000-0  53698-3 0  9993
2 47787  53.0554 350.7299 0001254  83.8448 276.2684 15.06414487 79875
Source of the keplerian elements: AFSPC